Location: �chenoz-la-M�line
(47.6009°N, 6.1354°E)
Time: 03:57:17
(UTC+00:00)

SL-19 R/B - Pass Details

Date: 27 January 2021
Orbit: 358 x 805 km, 99.4° (Epoch: 27 February)

Event Time Altitude Azimuth Distance (km) Brightness Sun altitude
Rises 06:08:10 0° 14° (NNE) 2,741 7.9 -10.2°
Reaches altitude 10° 06:10:27 10° 12° (NNE) 1,764 6.9 -9.8°
Maximum altitude 06:14:11 72° 289° (WNW) 498 3.9 -9.2°
Drops below altitude 10° 06:17:25 10° 204° (SSW) 1,527 6.5 -8.7°
Sets 06:19:16 0° 202° (SSW) 2,334 7.5 -8.4°
